Location: Newark
(37.8333°N, 119.5000°W)
Time: 03:03:24
(UTC+00:00)

Explorer 7 - Visible Passes

Search period start: 08 August 2020 00:00
Search period end: 18 August 2020 00:00
Orbit: 485 x 679 km, 50.3° (Epoch: 07 August)

Date Brightness Start Highest point End Pass type
(mag) Time Alt. Az. Time Alt. Az. Time Alt. Az.
08 Aug 6.7 04:07:57 10° SW 04:11:57 82° NW 04:15:47 10° NE visible
08 Aug 9.3 05:50:03 10° WNW 05:52:52 19° NNW 05:55:37 10° NNE visible
08 Aug 9.2 11:00:24 12° SE 11:00:24 12° SE 11:00:40 10° SE visible
09 Aug 7.6 04:12:53 10° WSW 04:16:46 49° NNW 04:20:30 10° NE visible
09 Aug 9.6 05:55:34 10° NW 05:57:56 15° NNW 06:00:15 10° NNE visible
10 Aug 8.5 04:18:02 10° W 04:21:39 32° NNW 04:25:08 10° NE visible
10 Aug 9.6 06:01:05 10° NW 06:03:02 13° N 06:04:52 10° NNE visible
11 Aug 9.0 04:23:22 10° WNW 04:26:36 23° NNW 04:29:44 10° NNE visible
11 Aug 9.6 06:06:27 10° NNW 06:08:10 13° N 06:09:15 11° NNE visible
12 Aug 9.4 04:28:50 10° WNW 04:31:37 18° NNW 04:34:21 10° NNE visible
12 Aug 9.6 06:11:33 10° NNW 06:13:19 13° N 06:13:34 13° N visible
13 Aug 9.5 04:34:21 10° NW 04:36:42 15° NNW 04:39:00 10° NNE visible
13 Aug 9.6 06:16:24 10° NNW 06:17:52 13° N 06:17:52 13° N visible
14 Aug 9.5 04:39:49 10° NW 04:41:48 13° N 04:43:46 10° NNE visible
14 Aug 9.7 06:21:04 10° NNW 06:22:07 14° NNW 06:22:07 14° NNW visible
15 Aug 9.4 04:45:08 10° NNW 04:46:57 13° N 04:48:45 10° NNE visible
15 Aug 9.8 06:25:40 10° NNW 06:26:23 13° NNW 06:26:23 13° NNW visible
16 Aug 9.3 04:50:09 10° NNW 04:52:05 13° N 04:54:00 10° NE visible
16 Aug 9.9 06:30:16 10° NW 06:30:39 12° NNW 06:30:39 12° NNW visible
17 Aug 9.3 03:13:03 10° NW 03:15:27 15° N 03:17:47 10° NNE visible
17 Aug 9.1 04:54:57 10° NNW 04:57:13 15° N 04:58:39 13° NE visible
17 Aug 10.0 06:34:53 10° NW 06:34:56 10° NW 06:34:56 10° NW visible
